Location: Cudham
(51.3000°N, 0.0667°E)
Time: 05:33:10
(UTC+00:00)

ISS - Pass Details

Date: 19 May 2025
Orbit: 415 x 417 km, 51.6° (Epoch: 13 June)

Event Time Altitude Azimuth Distance (km) Brightness Sun altitude
Rises 21:46:04 0° 284° (WNW) 2,364 0.8 -13.2°
Reaches altitude 10° 21:48:12 10° 279° (W) 1,497 -0.4 -13.4°
Maximum altitude 21:51:28 50° 203° (SSW) 540 -3.5 -13.7°
Enters shadow 21:52:55 28° 142° (SE) 822 -2.9 -13.8°
